Fort Meade, MD

1:53 AM EDT on April 25, 2017 (GMT -0400)
Tipton

Weather History for KFME - June, 2013

Change the Weather History Date:

Monday, June 10, 2013

  Actual Average (KBWI) Record (KBWI)
Temperature  
Mean Temperature 73 °F -  
Max Temperature 78 °F 82 °F 97 °F (1964)
Min Temperature 68 °F 60 °F 49 °F (1960)
Cooling Degree Days 8    
Growing Degree Days 23 (Base 50)    
Moisture  
Dew Point 68 °F    
Average Humidity 90    
Maximum Humidity 94    
Minimum Humidity 78    
Precipitation  
Precipitation 0.00 in - - ()
Sea Level Pressure  
Sea Level Pressure 29.98 in    
Wind  
Wind Speed 3 mph (SSE)    
Max Wind Speed 9 mph    
Max Gust Speed 17 mph    
Visibility 7 miles    
Events      
Averages and records for this station are not official NWS values.
T = Trace of Precipitation, MM = Missing Value Source: NWS Daily Summary

Daily Weather History Graph

Daily Weather History Graph

Search for Another Location

Airport or City:

Trip Planner

Search our weather history database for the weather conditions in past years. The results will help you decide how hot, cold, wet, or windy it might be!

Date:

Astronomy

Jun. 10, 2013 Rise Set
Actual Time 5:40 AM EDT 8:32 PM EDT
Civil Twilight 5:08 AM EDT 9:04 PM EDT
Nautical Twilight 4:28 AM EDT 9:45 PM EDT
Astronomical Twilight 3:42 AM EDT 10:31 PM EDT
Moon 7:26 AM EDT (6/10) 9:58 PM EDT (6/10)
Length of Visible Light 15h 55m
Length of Day
14h 51m
Waxing Crescent, 4% of the Moon is Illuminated
Jun 10
Waxing Crescent
Jun 16
First Quarter
Jun 23
Full
Jun 30
Last Quarter
Jul 8
New

Hourly Weather History & Observations

Time (EDT) Temp. Dew Point Humidity Pressure Visibility Wind Dir Wind Speed Gust Speed Precip Events Conditions
12:09 AM 69.8 °F 62.6 °F 78% 30.13 in 10.0 mi Calm Calm - N/A   Mostly Cloudy
12:30 AM 68.0 °F 62.6 °F 83% 30.13 in 10.0 mi Calm Calm - N/A   Mostly Cloudy
12:48 AM 68.0 °F 62.6 °F 83% 30.13 in 10.0 mi Calm Calm - N/A   Mostly Cloudy
1:09 AM 68.0 °F 64.4 °F 88% 30.12 in 10.0 mi East 3.5 mph - N/A   Mostly Cloudy
1:30 AM 69.8 °F 64.4 °F 83% 30.11 in 10.0 mi East 4.6 mph - N/A   Scattered Clouds
1:51 AM 69.8 °F 64.4 °F 83% 30.11 in 10.0 mi Calm Calm - N/A   Mostly Cloudy
2:09 AM 68.0 °F 64.4 °F 88% 30.11 in 10.0 mi East 3.5 mph - N/A   Overcast
2:30 AM 68.0 °F 64.4 °F 88% 30.10 in 10.0 mi Calm Calm - N/A   Overcast
2:51 AM 69.8 °F 64.4 °F 83% 30.10 in 10.0 mi East 3.5 mph - N/A   Overcast
3:09 AM 69.8 °F 64.4 °F 83% 30.10 in 10.0 mi SE 4.6 mph - N/A   Overcast
3:30 AM 69.8 °F 66.2 °F 88% 30.11 in 4.0 mi Calm Calm - N/A   Overcast
3:51 AM 68.0 °F 66.2 °F 94% 30.10 in 1.0 mi Calm Calm - N/A   Overcast
4:09 AM 68.0 °F 66.2 °F 94% 30.09 in 1.8 mi Calm Calm - N/A   Overcast
4:30 AM 68.0 °F 66.2 °F 94% 30.07 in 2.5 mi NE 3.5 mph - N/A   Overcast
4:51 AM 68.0 °F 66.2 °F 94% 30.09 in 4.0 mi Calm Calm - N/A   Mostly Cloudy
5:09 AM 68.0 °F 66.2 °F 94% 30.09 in 4.0 mi ENE 4.6 mph - N/A   Overcast
5:30 AM 68.0 °F 66.2 °F 94% 30.08 in 5.0 mi Calm Calm - N/A   Overcast
5:51 AM 68.0 °F 66.2 °F 94% 30.08 in 5.0 mi Calm Calm - N/A   Overcast
6:09 AM 68.0 °F 66.2 °F 94% 30.08 in 2.0 mi Calm Calm - N/A   Overcast
6:30 AM 68.0 °F 66.2 °F 94% 30.08 in 2.0 mi East 3.5 mph - N/A   Overcast
6:51 AM 69.8 °F 68.0 °F 94% 30.07 in 2.0 mi Calm Calm - N/A   Overcast
7:09 AM 69.8 °F 68.0 °F 94% 30.07 in 1.0 mi Calm Calm - N/A   Overcast
7:30 AM 69.8 °F 68.0 °F 94% 30.07 in 1.5 mi Calm Calm - N/A   Overcast
7:51 AM 69.8 °F 68.0 °F 94% 30.07 in 3.0 mi Calm Calm - N/A   Overcast
8:09 AM 69.8 °F 68.0 °F 94% 30.07 in 4.0 mi Calm Calm - N/A   Mostly Cloudy
8:30 AM 69.8 °F 68.0 °F 94% 30.07 in 5.0 mi SSE 3.5 mph - N/A   Scattered Clouds
8:51 AM 69.8 °F 68.0 °F 94% 30.07 in 7.0 mi South 3.5 mph - N/A   Scattered Clouds
9:09 AM 69.8 °F 68.0 °F 94% 30.06 in 10.0 mi SE 4.6 mph - N/A   Mostly Cloudy
9:30 AM 69.8 °F 68.0 °F 94% 30.06 in 0.5 mi Calm Calm - N/A   Overcast
9:51 AM 69.8 °F 68.0 °F 94% 30.05 in 10.0 mi SSE 3.5 mph - N/A   Overcast
10:12 AM 71.6 °F 69.8 °F 94% 30.04 in 10.0 mi ESE 3.5 mph - N/A   Overcast
10:30 AM 71.6 °F 69.8 °F 94% 30.03 in 7.0 mi SSE 3.5 mph - N/A   Overcast
10:51 AM 71.6 °F 69.8 °F 94% 30.03 in 7.0 mi SSE 3.5 mph - N/A   Overcast
11:12 AM 73.4 °F 69.8 °F 88% 30.03 in 5.0 mi SE 3.5 mph - N/A   Overcast
11:30 AM 73.4 °F 69.8 °F 88% 30.02 in 7.0 mi SSE 6.9 mph - N/A   Overcast
11:51 AM 73.4 °F 69.8 °F 88% 30.02 in 7.0 mi SSE 3.5 mph - N/A   Overcast
12:12 PM 73.4 °F 71.6 °F 94% 30.01 in 7.0 mi SSE 4.6 mph - N/A   Overcast
12:30 PM 75.2 °F 71.6 °F 89% 30.00 in 10.0 mi South 6.9 mph - N/A   Overcast
12:51 PM 75.2 °F 71.6 °F 89% 29.99 in 10.0 mi SSE 5.8 mph - N/A   Mostly Cloudy
1:12 PM 77.0 °F 71.6 °F 83% 29.97 in 10.0 mi South 4.6 mph - N/A   Overcast
1:30 PM 78.8 °F 71.6 °F 78% 29.95 in 10.0 mi South 8.1 mph - N/A   Overcast
1:51 PM 77.0 °F 71.6 °F 83% 29.94 in 10.0 mi South 5.8 mph - N/A   Mostly Cloudy
2:12 PM 78.8 °F 71.6 °F 78% 29.93 in 10.0 mi South 8.1 mph - N/A   Scattered Clouds
2:30 PM 77.0 °F 71.6 °F 83% 29.93 in 10.0 mi South 5.8 mph - N/A   Scattered Clouds
2:51 PM 75.2 °F 71.6 °F 89% 29.91 in 2.5 mi ESE 3.5 mph - N/A   Mostly Cloudy
3:12 PM 73.4 °F 71.6 °F 94% 29.92 in 1.0 mi SSW 4.6 mph - N/A   Overcast
3:30 PM 73.4 °F 69.8 °F 88% 29.91 in 4.0 mi South 5.8 mph 17.3 mph N/A   Overcast
3:51 PM 73.4 °F 71.6 °F 94% 29.90 in 5.0 mi South 6.9 mph - N/A   Scattered Clouds
4:12 PM 73.4 °F 71.6 °F 94% 29.89 in 5.0 mi SE 5.8 mph - N/A   Mostly Cloudy
4:30 PM 75.2 °F 71.6 °F 89% 29.88 in 7.0 mi SE 5.8 mph - N/A   Overcast
4:51 PM 73.4 °F 71.6 °F 94% 29.86 in 7.0 mi SE 3.5 mph - N/A   Overcast
5:12 PM 73.4 °F 71.6 °F 94% 29.85 in 5.0 mi SSE 3.5 mph - N/A   Mostly Cloudy
5:30 PM 77.0 °F 71.6 °F 83% 29.85 in 10.0 mi SSE 3.5 mph - N/A   Scattered Clouds
5:51 PM 77.0 °F 71.6 °F 83% 29.84 in 10.0 mi SE 5.8 mph - N/A   Mostly Cloudy
6:12 PM 75.2 °F 71.6 °F 89% 29.84 in 10.0 mi SSE 6.9 mph - N/A   Mostly Cloudy
6:30 PM 75.2 °F 71.6 °F 89% 29.84 in 10.0 mi SSE 4.6 mph - N/A   Mostly Cloudy
6:51 PM 73.4 °F 71.6 °F 94% 29.84 in 7.0 mi SSE 3.5 mph - N/A   Overcast
7:12 PM 73.4 °F 71.6 °F 94% 29.83 in 10.0 mi SSE 3.5 mph - N/A   Mostly Cloudy
7:33 PM 73.4 °F 69.8 °F 88% 29.83 in 10.0 mi SSE 5.8 mph - N/A   Scattered Clouds
7:51 PM 73.4 °F 69.8 °F 88% 29.83 in 10.0 mi Calm Calm - N/A   Mostly Cloudy
8:12 PM 71.6 °F 69.8 °F 94% 29.83 in 3.0 mi South 3.5 mph - N/A   Overcast
8:33 PM 71.6 °F 69.8 °F 94% 29.82 in 4.0 mi SSE 4.6 mph - N/A   Overcast
8:51 PM 71.6 °F 69.8 °F 94% 29.83 in 4.0 mi Calm Calm - N/A   Overcast
9:12 PM 69.8 °F 68.0 °F 94% 29.85 in 0.8 mi West 9.2 mph - N/A   Overcast
9:33 PM 69.8 °F 68.0 °F 94% 29.83 in 0.8 mi Calm Calm - N/A   Overcast
9:51 PM 69.8 °F 68.0 °F 94% 29.85 in 10.0 mi SSW 5.8 mph - N/A   Mostly Cloudy
10:12 PM 69.8 °F 68.0 °F 94% 29.86 in 7.0 mi SSW 8.1 mph - N/A   Overcast
10:33 PM 68.0 °F 66.2 °F 94% 29.86 in 5.0 mi SSW 8.1 mph - N/A   Overcast
10:51 PM 68.0 °F 66.2 °F 94% 29.85 in 10.0 mi SSW 6.9 mph - N/A   Overcast
11:12 PM 68.0 °F 66.2 °F 94% 29.85 in 10.0 mi SSW 5.8 mph - N/A   Overcast
11:33 PM 68.0 °F 66.2 °F 94% 29.85 in 10.0 mi SW 5.8 mph - N/A   Overcast
11:51 PM 68.0 °F 66.2 °F 94% 29.85 in 7.0 mi WSW 5.8 mph - N/A   Mostly Cloudy